User: anonymous   Login
Location: Unspecified
(0.0000°N, 0.0000°E)
Time: 07:16:15
(UTC+00:00)
Language:

YUBELEINY 2 - Orbit

View from above orbital plane
View from above orbital plane
View from above satellite
View from above satellite

Ground track
Ground track

The orbit data is extracted from the following two-line orbital elements,

1 38735U 12041C   18115.85846177 +.00000002 +00000-0 -61230-4 0  9995
2 38735 082.4721 129.2515 0018118 069.9432 290.3596 12.42576575260500
Epoch (UTC): 25 April 2018 20:36:11
Eccentricity: 0.0018118
inclination: 82.4721°
perigee height: 1481 km
apogee height: 1510 km
right ascension of ascending node: 129.2515°
argument of perigee: 69.9432°
revolutions per day: 12.42576575
mean anomaly at epoch: 290.3596°
orbit number at epoch: 26050

The dashed part of the orbit path shows where the satellite is in the earth's shadow,  

DLR